When you browse on this site, cookies collect data to enhance your experience and personalize the content and advertising you see.
Visit our Privacy Policy to learn more. By continuing to use the site, you agree to this use of cookies and data.
  • In Latvia
  • List of Countries
  • For 7 days
  • Water Temperature
  • Satellite Maps
  • Weather Map
  • Weather Widgets
  • user-avatar
    Login

    Hourly Weather San Luis

    Today, 18 July, Thursday

    Time Temperature Precipitation Wind Pressure Humidity
    00:00 +13°C° 0 mm 4 mps 696 mmHg 61%
    01:00 +13°C° 0 mm 4 mps 697 mmHg 64%
    02:00 +12°C° 0 mm 4 mps 697 mmHg 66%
    03:00 +10°C° 0 mm 5 mps 698 mmHg 67%
    04:00 +9°C° 0 mm 6 mps 698 mmHg 67%
    05:00 +8°C° 0 mm 7 mps 699 mmHg 68%
    06:00 +8°C° 0 mm 7 mps 700 mmHg 61%
    07:00 +9°C° 0 mm 7 mps 701 mmHg 55%
    08:00 +9°C° 0 mm 7 mps 702 mmHg 48%
    09:00 +9°C° 0 mm 7 mps 703 mmHg 45%
    10:00 +10°C° 0 mm 7 mps 703 mmHg 41%
    11:00 +10°C° 0 mm 7 mps 704 mmHg 38%
    12:00 +10°C° 0 mm 7 mps 704 mmHg 36%
    13:00 +11°C° 0 mm 7 mps 704 mmHg 35%
    14:00 +11°C° 0 mm 7 mps 704 mmHg 33%
    15:00 +10°C° 0 mm 7 mps 704 mmHg 34%
    16:00 +10°C° 0 mm 6 mps 703 mmHg 35%
    17:00 +9°C° 0 mm 5 mps 703 mmHg 36%
    18:00 +9°C° 0 mm 5 mps 703 mmHg 37%
    19:00 +8°C° 0 mm 5 mps 703 mmHg 39%
    20:00 +8°C° 0 mm 5 mps 703 mmHg 40%
    21:00 +8°C° 0 mm 4 mps 703 mmHg 41%
    22:00 +8°C° 0 mm 4 mps 703 mmHg 43%
    23:00 +9°C° 0 mm 3 mps 703 mmHg 44%

    Tomorrow, 19 July, Friday

    Time Temperature Precipitation Wind Pressure Humidity
    00:00 +8°C° 0 mm 3 mps 702 mmHg 48%
    01:00 +7°C° 0 mm 3 mps 702 mmHg 52%
    02:00 +7°C° 0 mm 2 mps 701 mmHg 56%
    03:00 +7°C° 0 mm 2 mps 700 mmHg 59%
    04:00 +6°C° 0 mm 2 mps 700 mmHg 61%
    05:00 +6°C° 0 mm 2 mps 699 mmHg 64%
    06:00 +6°C° 0 mm 2 mps 699 mmHg 64%
    07:00 +6°C° 0 mm 2 mps 699 mmHg 65%
    08:00 +6°C° 0 mm 2 mps 699 mmHg 65%
    09:00 +9°C° 0 mm 3 mps 699 mmHg 58%
    10:00 +12°C° 0 mm 4 mps 699 mmHg 51%
    11:00 +14°C° 0 mm 5 mps 699 mmHg 44%
    12:00 +15°C° 0 mm 6 mps 698 mmHg 43%
    13:00 +16°C° 0 mm 6 mps 697 mmHg 43%
    14:00 +17°C° 0 mm 7 mps 696 mmHg 42%
    15:00 +17°C° 0 mm 6 mps 695 mmHg 45%
    16:00 +16°C° 0 mm 5 mps 695 mmHg 47%
    17:00 +15°C° 0 mm 4 mps 695 mmHg 50%
    18:00 +14°C° 0 mm 3 mps 694 mmHg 56%
    19:00 +12°C° 0 mm 3 mps 694 mmHg 62%
    20:00 +12°C° 0 mm 2 mps 694 mmHg 68%
    21:00 +12°C° 0 mm 2 mps 694 mmHg 70%
    22:00 +10°C° 0 mm 2 mps 694 mmHg 72%
    23:00 +10°C° 0 mm 2 mps 694 mmHg 74%

    Day after tomorrow, 20 July, Saturday

    Time Temperature Precipitation Wind Pressure Humidity
    00:00 +10°C° 0 mm 2 mps 694 mmHg 75%
    01:00 +10°C° 0 mm 2 mps 693 mmHg 76%
    02:00 +9°C° 0 mm 2 mps 693 mmHg 77%
    03:00 +10°C° 0 mm 3 mps 693 mmHg 75%
    04:00 +10°C° 0 mm 3 mps 693 mmHg 73%
    05:00 +10°C° 0 mm 3 mps 693 mmHg 71%
    06:00 +11°C° 0 mm 3 mps 693 mmHg 71%
    07:00 +11°C° 0 mm 3 mps 694 mmHg 71%
    08:00 +11°C° 0 mm 3 mps 694 mmHg 70%
    09:00 +13°C° 0 mm 2 mps 694 mmHg 69%
    10:00 +14°C° 0 mm 2 mps 694 mmHg 67%
    11:00 +15°C° 0 mm 2 mps 694 mmHg 65%
    12:00 +16°C° 0 mm 2 mps 693 mmHg 66%
    13:00 +16°C° 0 mm 2 mps 693 mmHg 67%
    14:00 +17°C° 0 mm 2 mps 692 mmHg 68%
    15:00 +17°C° 0 mm 3 mps 691 mmHg 69%
    16:00 +17°C° 0 mm 4 mps 691 mmHg 69%
    17:00 +17°C° 0 mm 4 mps 690 mmHg 70%
    18:00 +15°C° 0 mm 4 mps 690 mmHg 76%
    19:00 +14°C° 0 mm 4 mps 689 mmHg 82%
    20:00 +12°C° 0 mm 3 mps 689 mmHg 89%
    21:00 +12°C° 0 mm 3 mps 689 mmHg 89%
    22:00 +12°C° 0 mm 4 mps 689 mmHg 90%
    23:00 +12°C° 0 mm 4 mps 689 mmHg 90%

    21 July, Sunday

    Time Temperature Precipitation Wind Pressure Humidity
    00:00 +12°C° 0 mm 4 mps 689 mmHg 90%
    01:00 +12°C° 0 mm 4 mps 689 mmHg 90%
    02:00 +12°C° 0 mm 4 mps 688 mmHg 90%
    03:00 +11°C° 0 mm 3 mps 688 mmHg 90%
    04:00 +12°C° 0 mm 2 mps 688 mmHg 89%
    05:00 +10°C° 0 mm 2 mps 688 mmHg 89%
    06:00 +10°C° 0 mm 3 mps 689 mmHg 88%
    07:00 +11°C° 0 mm 4 mps 690 mmHg 87%
    08:00 +10°C° 0 mm 5 mps 690 mmHg 86%
    09:00 +11°C° 0 mm 6 mps 691 mmHg 82%
    10:00 +11°C° 0 mm 7 mps 692 mmHg 78%
    11:00 +11°C° 0 mm 8 mps 693 mmHg 74%
    12:00 +10°C° 0 mm 9 mps 693 mmHg 66%
    13:00 +10°C° 0 mm 9 mps 693 mmHg 57%
    14:00 +8°C° 0 mm 10 mps 692 mmHg 49%
    15:00 +8°C° 0 mm 10 mps 693 mmHg 44%
    16:00 +8°C° 0 mm 10 mps 693 mmHg 39%
    17:00 +7°C° 0 mm 10 mps 694 mmHg 34%
    18:00 +7°C° 0 mm 10 mps 694 mmHg 33%
    19:00 +6°C° 0 mm 10 mps 695 mmHg 33%
    20:00 +5°C° 0 mm 10 mps 696 mmHg 33%
    21:00 +3°C° 0 mm 10 mps 697 mmHg 38%
    22:00 +3°C° 0 mm 10 mps 698 mmHg 43%
    23:00 +2°C° 0 mm 10 mps 699 mmHg 49%

    22 July, Monday

    Time Temperature Precipitation Wind Pressure Humidity
    00:00 +1°C° 0 mm 9 mps 699 mmHg 52%
    01:00 +1°C° 0 mm 9 mps 700 mmHg 56%
    02:00 0°C° 0 mm 8 mps 700 mmHg 60%
    03:00 0°C° 0 mm 7 mps 700 mmHg 58%
    04:00 +1°C° 0 mm 6 mps 700 mmHg 56%
    05:00 +1°C° 0 mm 4 mps 701 mmHg 53%
    06:00 +1°C° 0 mm 4 mps 701 mmHg 52%
    07:00 +1°C° 0 mm 4 mps 702 mmHg 50%
    08:00 +2°C° 0 mm 3 mps 703 mmHg 49%
    09:00 +3°C° 0 mm 4 mps 703 mmHg 42%
    10:00 +5°C° 0 mm 5 mps 704 mmHg 35%
    11:00 +5°C° 0 mm 6 mps 704 mmHg 28%
    12:00 +7°C° 0 mm 6 mps 704 mmHg 26%
    13:00 +8°C° 0 mm 6 mps 703 mmHg 24%
    14:00 +8°C° 0 mm 5 mps 703 mmHg 23%
    15:00 +8°C° 0 mm 5 mps 703 mmHg 24%
    16:00 +7°C° 0 mm 5 mps 703 mmHg 25%
    17:00 +7°C° 0 mm 5 mps 703 mmHg 26%
    18:00 +6°C° 0 mm 4 mps 703 mmHg 28%
    19:00 +5°C° 0 mm 4 mps 703 mmHg 31%
    20:00 +4°C° 0 mm 4 mps 703 mmHg 33%
    21:00 +3°C° 0 mm 4 mps 703 mmHg 33%
    22:00 +3°C° 0 mm 4 mps 704 mmHg 33%
    23:00 +1°C° 0 mm 4 mps 704 mmHg 33%

    23 July, Tuesday

    Time Temperature Precipitation Wind Pressure Humidity
    00:00 +1°C° 0 mm 4 mps 704 mmHg 34%
    01:00 +1°C° 0 mm 4 mps 704 mmHg 34%
    02:00 +1°C° 0 mm 4 mps 704 mmHg 34%
    03:00 +1°C° 0 mm 3 mps 704 mmHg 35%
    04:00 +1°C° 0 mm 3 mps 704 mmHg 36%
    05:00 +2°C° 0 mm 2 mps 704 mmHg 38%
    06:00 +2°C° 0 mm 2 mps 704 mmHg 38%
    07:00 +2°C° 0 mm 2 mps 705 mmHg 39%
    08:00 +2°C° 0 mm 2 mps 705 mmHg 40%
    09:00 +5°C° 0 mm 1 mps 706 mmHg 35%
    10:00 +8°C° 0 mm 1 mps 707 mmHg 30%
    11:00 +10°C° 0 mm 1 mps 707 mmHg 25%
    12:00 +11°C° 0 mm 1 mps 707 mmHg 25%
    13:00 +11°C° 0 mm 1 mps 707 mmHg 24%
    14:00 +12°C° 0 mm 2 mps 706 mmHg 24%
    15:00 +12°C° 0 mm 2 mps 706 mmHg 24%
    16:00 +10°C° 0 mm 2 mps 706 mmHg 25%
    17:00 +10°C° 0 mm 3 mps 706 mmHg 25%
    18:00 +9°C° 0 mm 3 mps 706 mmHg 26%
    19:00 +6°C° 0 mm 4 mps 707 mmHg 27%
    20:00 +5°C° 0 mm 4 mps 707 mmHg 28%
    21:00 +4°C° 0 mm 4 mps 707 mmHg 29%
    22:00 +4°C° 0 mm 3 mps 707 mmHg 31%
    23:00 +3°C° 0 mm 3 mps 708 mmHg 33%
    Show more